GW0890 Weather Reports


time (UTC)temp
C
wind
direction
speed
KPH
gust
KPH
rain 1hr
cm
rain 24hr
cm
rain mn
cm
humidity
%
barometer
mb
20260903134606 26 299 3.2 8.0 0.00 0.00 0.00 92 1015.6
20260903133052 25 267 1.6 8.0 0.00 0.00 0.00 96 1015.7
20260903131545 24 224 0.0 0.0 0.00 0.00 0.00 99 1015.9
20260903130044 23 224 0.0 0.0 0.00 0.00 0.00 99 1016.1
20260903124554 22 224 0.0 0.0 0.00 0.00 0.00 99 1016.1
20260903123041 22 224 0.0 0.0 0.00 0.00 0.00 99 1016.2
20260903121546 22 224 0.0 0.0 0.00 0.00 0.00 99 1016.2
20260903120037 21 224 0.0 0.0 0.00 0.00 0.00 99 1016.2
20260903114535 21 224 0.0 0.0 0.00 0.00 0.00 99 1016.0
20260903113032 21 224 0.0 0.0 0.00 0.00 0.00 99 1015.8
20260903111530 21 224 0.0 0.0 0.00 0.00 0.00 99 1015.8
20260903110028 21 224 0.0 0.0 0.00 0.00 0.00 99 1015.6
20260903104526 21 224 0.0 0.0 0.00 0.00 0.00 98 1015.4
20260903103023 21 224 0.0 0.0 0.00 0.00 0.00 99 1015.4
20260903101529 21 224 0.0 0.0 0.00 0.00 0.00 99 1015.2
20260903100025 21 224 0.0 0.0 0.00 0.00 0.00 99 1015.2
20260903094516 21 224 0.0 0.0 0.00 0.00 0.00 98 1015.1
20260903093016 21 224 0.0 0.0 0.00 0.00 0.00 98 1015.0
20260903091515 21 224 0.0 0.0 0.00 0.00 0.00 98 1015.0
20260903090014 21 224 0.0 0.0 0.00 0.00 0.00 98 1015.0
20260903084514 21 223 0.0 0.0 0.00 0.00 0.00 98 1015.0
20260903083011 22 223 0.0 0.0 0.00 0.00 0.00 98 1014.9
20260903081509 22 223 0.0 0.0 0.00 0.00 0.00 98 1014.9
20260903080008 22 223 0.0 0.0 0.00 0.00 0.00 98 1014.9
20260903074638 22 223 0.0 0.0 0.00 0.00 0.00 98 1014.9
20260903073044 22 223 0.0 0.0 0.00 0.00 0.00 98 1014.8
20260903071506 22 223 0.0 0.0 0.00 0.00 0.00 98 1014.8
20260903070006 22 223 0.0 0.0 0.00 0.00 0.00 98 1014.8
20260903064503 22 223 0.0 0.0 0.00 0.00 0.00 98 1014.9
20260903063125 22 223 0.0 0.0 0.00 0.00 0.00 98 1014.9
20260903061600 22 223 0.0 0.0 0.00 0.00 0.00 98 1015.0
20260903060059 22 223 0.0 0.0 0.00 0.00 0.00 98 1014.9
20260903054553 22 221 0.0 0.0 0.00 0.00 0.00 97 1014.8
20260903053056 23 221 0.0 0.0 0.00 0.00 0.00 97 1014.8
20260903051551 23 221 0.0 0.0 0.00 0.00 0.00 97 1014.8
20260903050050 23 221 0.0 0.0 0.00 0.00 0.00 97 1014.7
20260903044548 23 221 0.0 0.0 0.00 0.00 0.00 97 1014.6
20260903043101 23 221 0.0 0.0 0.00 0.00 0.00 97 1014.6
20260903041547 23 221 0.0 0.0 0.00 0.00 0.00 97 1014.6
20260903040047 23 221 0.0 0.0 0.00 0.00 0.00 97 1014.7
20260903034542 23 221 0.0 0.0 0.00 0.00 0.00 96 1014.7
20260903033041 23 221 0.0 0.0 0.00 0.00 0.00 96 1014.7
20260903031547 24 221 0.0 0.0 0.00 0.00 0.00 96 1014.8
20260903030041 24 221 0.0 0.0 0.00 0.00 0.00 96 1014.8
20260903024538 24 221 0.0 0.0 0.00 0.00 0.00 95 1014.9
20260903023038 24 220 0.0 3.2 0.00 0.00 0.00 95 1014.8
20260903021537 25 220 0.0 0.0 0.00 0.00 0.00 95 1014.7
20260903020045 25 221 0.0 3.2 0.00 0.00 0.00 95 1014.7
20260903014536 25 220 0.0 3.2 0.00 0.00 0.00 94 1014.8
20260903013005 25 220 0.0 3.2 0.00 0.00 0.00 93 1014.7
20260903011510 26 219 0.0 1.6 0.00 0.00 0.00 92 1014.6
20260903010038 26 219 0.0 3.2 0.00 0.00 0.00 91 1014.4
20260903004535 26 219 0.0 3.2 0.00 0.00 0.00 90 1014.3
20260903003004 26 219 1.6 6.4 0.00 0.00 0.00 89 1014.1
20260903001505 27 221 0.0 6.4 0.00 0.00 0.00 88 1014.1
20260903000040 27 225 4.8 8.0 0.00 0.00 0.00 86 1014.0
20260902234532 28 228 1.6 8.0 0.00 0.00 0.00 83 1013.9
20260902233007 29 245 3.2 8.0 0.00 0.00 0.00 78 1013.9
20260902231503 31 299 3.2 8.0 0.00 0.00 0.00 72 1014.0
20260902230105 32 304 1.6 6.4 0.00 0.00 0.00 69 1014.2
20260902224558 33 317 1.6 3.2 0.00 0.00 0.00 63 1014.2
20260902223115 33 319 1.6 8.0 0.00 0.00 0.00 62 1014.1
20260902221556 34 21 1.6 11.3 0.00 0.00 0.00 59 1014.1
20260902220054 33 316 1.6 12.9 0.00 0.00 0.00 59 1014.1
20260902214554 34 332 4.8 14.5 0.00 0.00 0.00 56 1014.2
20260902213052 35 306 1.6 8.0 0.00 0.00 0.00 55 1014.2
20260902211551 35 41 3.2 8.0 0.00 0.00 0.00 54 1014.2
20260902210048 35 40 8.0 12.9 0.00 0.00 0.00 54 1014.3
20260902204610 35 26 9.7 14.5 0.00 0.00 0.00 54 1014.5
20260902203044 35 30 6.4 12.9 0.00 0.00 0.00 55 1014.6
20260902201542 35 24 1.6 14.5 0.00 0.00 0.00 55 1014.9
20260902200041 35 355 3.2 12.9 0.00 0.00 0.00 55 1015.1
20260902194536 35 300 1.6 14.5 0.00 0.00 0.00 53 1015.2
20260902193036 35 360 8.0 14.5 0.00 0.00 0.00 54 1015.3
20260902191534 35 294 4.8 12.9 0.00 0.00 0.00 54 1015.3
20260902190035 35 27 8.0 12.9 0.00 0.00 0.00 53 1015.3
20260902184534 35 302 1.6 9.7 0.00 0.00 0.00 59 1015.4
20260902183049 35 360 4.8 16.1 0.00 0.00 0.00 56 1015.5
20260902181528 34 360 4.8 16.1 0.00 0.00 0.00 56 1015.7
20260902180025 35 47 8.0 14.5 0.00 0.00 0.00 56 1015.8
20260902174526 34 85 0.0 8.0 0.00 0.00 0.00 60 1015.8
20260902173028 34 84 3.2 9.7 0.00 0.00 0.00 59 1016.1
20260902171520 33 34 8.0 11.3 0.00 0.00 0.00 61 1016.4
20260902170015 33 315 3.2 12.9 0.00 0.00 0.00 64 1016.6
20260902164520 33 309 8.0 14.5 0.00 0.00 0.00 66 1016.9
20260902163009 32 309 4.8 14.5 0.00 0.00 0.00 67 1017.2
20260902161510 32 24 6.4 12.9 0.00 0.00 0.00 66 1017.4
20260902160006 32 120 8.0 11.3 0.00 0.00 0.00 69 1017.3
20260902154602 31 67 3.2 12.9 0.00 0.00 0.00 70 1017.5
20260902153107 31 47 3.2 14.5 0.00 0.00 0.00 71 1017.4
20260902151555 30 68 6.4 11.3 0.00 0.00 0.00 74 1017.4
20260902150048 29 80 8.0 14.5 0.00 0.00 0.00 76 1017.4
20260902144546 28 20 4.8 8.0 0.00 0.00 0.00 80 1017.3
20260902143041 27 313 0.0 0.0 0.00 0.00 0.00 86 1017.2
20260902141538 27 57 0.0 8.0 0.00 0.00 0.00 87 1017.3
20260902140004 26 284 0.0 3.2 0.00 0.00 0.00 90 1017.2